Wind_Speed
19 19 17 16 17 18 20 22 22 20 20 18 17 16 14 12 11 9 8 5 3 3 3 4 5 6 7 8 8 8 8 10 10 10 9 8 8 7 6 6 5 5 5 6 7 8 7 8 9 9 9 10 12 14 13 13 13 12 9 12 13 10 10 15 15 9 8 10 10 10 9 9 9 8 8 7 7 7 7 7 8 8 9 9 9
20 20 19 17 17 19 20 22 23 22 20 19 18 17 16 15 13 10 9 5 2 2 2 4 5 6 7 8 8 8 8 8 9 9 9 8 8 7 6 6 6 6 5 5 6 6 6 7 8 9 10 11 14 14 13 13 12 11 11 12 12 12 14 17 11 3 3 8 11 11 10 9 9 8 8 8 7 7 7 8 8 8 9 9 9
21 21 20 18 19 20 21 22 23 23 22 21 20 19 17 16 14 11 9 6 3 2 2 3 4 5 6 7 7 8 8 8 9 9 9 9 8 7 6 6 7 6 7 6 5 5 5 6 7 9 10 11 13 13 11 11 10 9 10 9 9 13 14 14 11 5 7 11 12 12 10 9 9 9 8 8 8 8 8 7 8 9 9 9 9
22 21 20 20 21 20 20 22 24 25 25 23 21 21 19 17 15 13 10 7 4 3 2 3 4 4 5 6 7 7 8 9 10 10 9 9 9 8 8 8 7 7 7 6 6 6 7 7 7 8 9 10 12 11 10 9 9 10 10 8 7 15 17 14 14 10 9 9 9 12 10 8 8 8 8 8 8 8 9 9 9 10 10 11 11
23 22 21 23 23 21 21 23 27 28 27 25 23 21 20 19 16 14 12 9 6 4 2 2 3 4 5 6 7 8 9 9 10 10 10 10 9 9 9 8 7 7 7 7 9 9 8 8 7 8 9 11 13 11 9 10 10 10 9 8 7 17 19 13 12 9 7 5 4 8 10 9 7 9 11 10 9 9 10 11 12 13 13 14 14
21 21 23 25 25 24 25 28 30 30 29 28 25 22 22 20 17 15 13 10 7 6 4 2 3 3 4 6 8 10 10 10 11 10 12 12 10 11 10 9 10 8 6 8 9 8 8 9 8 8 11 12 13 13 12 13 12 9 8 11 10 14 19 16 14 11 7 4 3 6 10 10 8 7 12 14 12 12 12 13 15 15 16 17 17
19 21 24 26 27 26 27 30 32 32 31 29 26 24 23 20 18 16 14 11 9 8 5 4 3 3 5 7 8 9 10 10 10 10 11 12 11 11 10 10 12 10 7 9 9 6 8 10 9 9 10 10 12 14 14 16 15 12 11 13 11 10 14 16 18 16 10 8 9 7 7 12 12 10 9 11 13 14 13 13 14 14 16 18 18
24 24 25 27 28 29 30 32 33 32 31 28 27 26 23 21 20 18 16 13 11 9 7 6 5 4 6 7 6 6 8 9 9 9 10 10 9 9 8 11 13 11 10 11 9 7 8 10 10 10 10 9 11 14 14 16 18 17 15 14 13 13 13 15 20 21 16 15 15 12 11 13 16 15 12 11 11 12 13 15 17 17 18 20 21
27 28 29 30 32 32 33 35 34 32 31 29 28 27 25 23 22 19 16 14 12 10 8 8 7 7 7 7 5 5 7 8 9 9 10 10 9 8 9 10 11 11 12 11 8 8 9 10 10 11 12 11 11 12 14 15 16 17 15 14 15 18 16 14 16 20 21 20 17 16 16 15 15 15 15 14 14 14 15 18 19 19 19 20 23
31 31 31 33 35 34 34 34 35 34 33 31 29 27 26 26 24 20 17 16 13 11 10 10 10 9 7 7 7 6 7 8 9 10 11 12 12 10 9 9 9 10 10 10 10 10 11 11 12 13 13 12 11 12 13 14 15 17 16 14 16 19 18 15 13 15 18 19 16 14 16 16 15 15 15 15 17 18 20 21 22 22 22 22 23
32 33 32 33 35 34 33 34 36 35 33 31 30 29 28 28 24 20 18 17 15 14 14 13 13 12 8 8 9 9 8 9 9 10 11 13 14 14 11 9 9 9 9 10 11 10 11 12 13 13 13 13 14 14 15 16 16 17 17 16 17 19 19 19 17 15 15 16 16 15 15 15 15 16 15 15 16 17 19 21 23 25 25 25 23
34 35 35 35 34 33 34 36 36 33 31 31 31 30 29 27 23 20 20 19 18 18 18 16 16 15 12 11 11 10 9 9 10 11 11 12 15 15 14 13 12 12 11 10 11 11 11 13 14 13 14 15 16 17 17 18 18 18 18 19 19 19 20 20 19 18 17 17 17 17 17 16 16 16 17 18 18 19 20 22 23 25 26 26 26
33 36 36 35 35 35 36 35 34 32 31 31 31 29 27 25 23 22 22 21 21 21 19 17 17 17 15 13 12 11 11 10 10 11 11 12 13 14 15 15 14 15 15 13 13 11 11 13 14 14 14 16 17 18 19 19 20 20 20 20 20 20 21 20 20 20 20 20 19 19 19 20 20 19 21 22 23 24 26 27 28 29 30 31 30
32 34 33 32 33 33 34 34 34 32 31 30 29 28 28 26 25 24 23 23 22 21 18 17 18 18 16 15 13 12 11 11 11 12 12 13 13 14 14 14 14 15 16 15 13 11 10 12 12 11 12 13 15 17 19 20 21 22 22 22 22 21 22 22 22 23 23 23 23 22 22 23 24 24 25 27 28 29 31 32 33 34 35 35 35
30 31 31 31 31 32 34 35 34 32 31 31 31 29 28 27 27 26 25 25 23 21 19 17 16 17 17 16 14 13 12 12 12 12 13 13 13 13 13 13 13 13 13 13 13 13 13 14 13 11 11 12 13 16 18 19 21 22 23 24 24 24 24 24 25 26 26 26 26 26 26 27 28 28 29 31 32 33 35 37 37 38 38 38 38
30 29 30 31 32 34 37 36 35 34 34 34 33 31 30 29 29 29 28 26 24 22 20 17 15 15 17 15 12 12 12 12 13 13 13 13 13 13 13 13 13 13 12 13 15 16 17 17 17 16 15 15 16 16 16 18 21 22 23 25 26 26 26 27 29 29 29 29 30 30 30 31 31 32 33 34 36 37 38 40 41 41 41 41 41
28 27 30 33 33 35 37 36 36 38 38 36 34 32 32 31 31 31 30 27 25 24 22 18 14 15 16 14 12 11 11 12 13 13 14 14 14 14 14 15 15 14 14 16 17 18 18 20 20 20 20 20 20 19 19 20 22 23 24 26 27 28 29 30 32 32 33 33 33 33 34 34 35 35 37 38 38 38 40 42 42 42 43 44 45
18 21 26 33 35 35 36 35 36 38 37 36 36 34 33 34 33 32 31 28 26 25 22 20 16 16 17 15 12 11 12 13 14 14 15 15 15 16 16 17 16 16 17 18 18 18 19 20 21 21 21 22 23 23 24 24 25 26 27 28 29 31 32 33 34 35 35 36 36 37 38 39 39 40 40 41 41 40 42 43 42 42 44 45 45
12 12 17 25 29 30 30 29 30 32 32 33 33 32 32 33 33 32 31 30 28 25 21 19 17 17 18 16 13 12 13 13 14 15 16 16 16 17 17 17 16 16 18 19 20 20 21 22 23 22 22 23 24 25 27 28 28 29 30 31 32 33 34 36 37 38 39 40 40 41 42 43 44 44 44 43 43 42 43 43 42 42 42 42 42
11 12 15 20 23 25 26 27 27 28 31 32 32 30 30 32 33 33 31 30 27 23 19 17 17 18 19 17 14 14 14 14 14 15 16 17 18 18 19 19 19 19 20 22 24 26 26 25 25 25 25 25 26 28 29 30 31 32 33 34 35 36 38 39 40 42 43 44 45 45 45 45 45 46 46 46 45 44 43 42 41 41 42 43 44
12 15 16 18 20 21 23 25 25 26 28 28 27 25 26 28 28 27 25 23 21 19 17 17 18 20 19 16 15 16 16 16 16 16 16 16 17 19 20 22 22 22 23 24 26 29 30 28 27 28 28 29 31 32 32 33 35 36 37 38 39 40 41 42 42 43 45 46 46 47 47 47 47 47 48 48 48 47 46 45 44 44 45 47 48
7 9 10 12 14 15 16 17 18 20 23 23 23 22 22 22 21 20 19 19 18 17 17 18 19 20 18 16 16 18 18 19 19 18 18 17 16 18 20 21 22 22 23 24 26 29 31 30 29 29 30 32 34 34 34 35 35 36 37 38 40 41 42 42 43 44 46 47 48 49 50 50 50 51 51 52 52 52 52 52 51 51 51 52 52
8 7 7 7 8 9 10 11 12 15 18 20 20 19 19 18 18 18 18 17 16 16 16 17 18 19 18 18 19 20 21 21 21 20 20 19 18 18 19 21 22 23 23 25 26 28 30 31 30 30 32 33 34 35 36 36 37 37 38 38 39 41 42 44 45 47 48 49 50 51 51 52 53 53 53 53 53 54 55 55 55 55 55 55 55
10 10 10 9 8 8 8 8 9 12 14 16 17 17 17 18 18 18 18 17 17 17 18 18 18 18 18 18 18 19 20 21 21 21 20 19 19 19 19 21 23 24 25 26 27 28 30 31 33 34 34 34 35 36 37 39 40 40 40 42 43 44 45 46 47 48 49 49 50 50 50 51 52 52 52 53 52 52 52 52 52 53 53 53 52
7 8 8 8 8 8 9 8 8 9 10 12 13 14 14 14 15 16 16 15 16 16 17 17 17 16 16 15 15 16 18 18 17 17 17 17 18 18 19 20 22 23 24 25 26 27 29 30 32 34 34 35 35 36 37 38 40 41 41 43 45 46 46 46 47 47 47 47 47 47 48 49 49 50 51 51 50 50 49 48 48 46 46 46 47
5 5 4 4 5 5 5 5 6 6 6 7 8 8 8 8 9 10 10 10 11 12 13 14 14 14 14 14 15 17 19 17 13 13 15 17 18 18 19 20 21 22 24 25 26 28 29 31 32 33 34 35 36 37 38 38 39 40 40 40 41 42 42 42 43 43 43 43 43 44 44 45 46 47 47 46 46 45 45 45 44 42 39 38 38
5 5 5 4 4 4 3 3 2 1 1 1 2 2 3 3 4 4 5 6 8 9 10 10 11 12 13 14 16 18 18 14 11 13 16 18 19 19 20 21 22 23 24 26 27 28 29 30 31 32 33 34 35 36 37 38 38 38 38 38 38 38 38 38 39 39 39 40 41 41 42 43 44 44 44 43 42 42 41 41 41 40 37 35 35
5 5 5 5 5 6 6 5 5 5 4 3 3 2 2 3 3 4 5 6 7 8 9 9 11 11 11 12 14 16 15 13 12 14 16 18 19 20 21 22 23 24 26 27 28 29 29 30 30 31 32 33 34 34 35 35 35 35 36 36 36 36 36 37 37 38 38 39 40 40 41 41 42 43 43 42 41 39 37 36 36 37 37 37 37
5 5 5 4 4 5 5 5 5 5 5 5 5 4 4 5 6 6 6 7 7 8 9 10 11 11 11 12 14 15 15 16 16 17 18 19 20 22 22 23 24 25 25 26 27 27 28 27 27 28 28 29 30 31 31 31 32 32 33 33 34 34 35 35 36 36 38 38 38 38 38 38 38 39 39 40 39 37 35 35 35 36 36 37 37
7 7 6 6 5 5 5 4 4 4 4 5 5 5 5 6 6 7 7 8 8 9 10 11 11 12 13 14 16 17 18 18 19 19 19 19 20 21 21 22 22 23 23 23 24 24 24 24 24 24 25 26 27 28 28 29 30 31 32 33 33 34 34 34 34 35 35 35 35 35 35 35 35 36 36 37 37 36 35 35 35 36 37 36 35
10 9 9 8 8 8 8 7 6 5 6 5 6 7 7 7 7 8 8 9 9 10 11 12 12 13 14 15 16 17 18 18 18 17 17 17 18 18 19 19 19 19 19 20 20 21 21 21 22 24 25 26 26 27 28 29 29 30 30 31 31 31 30 30 31 32 32 32 33 33 34 34 35 35 36 37 37 37 37 36 36 37 38 38 37
11 11 10 10 10 11 11 11 10 9 8 8 8 9 9 8 8 9 10 10 10 11 12 13 13 14 14 15 16 16 16 16 16 15 15 15 15 15 16 16 16 17 17 18 20 20 21 21 22 24 25 26 26 27 27 28 28 28 27 27 26 26 27 28 29 30 31 32 33 34 35 35 35 35 36 37 37 38 38 37 37 37 37 38 39
13 12 12 11 12 13 13 12 11 11 10 10 10 11 10 9 9 10 11 10 11 12 12 13 13 13 14 14 14 14 14 14 13 13 13 13 14 15 15 16 16 17 17 19 20 21 21 22 23 24 24 25 25 24 24 24 24 24 24 24 25 26 26 28 29 30 31 32 33 33 33 33 34 34 34 35 36 37 37 37 37 36 37 38 39
14 13 14 13 13 14 14 13 12 12 12 12 13 13 12 11 10 11 11 11 11 12 13 12 12 12 13 12 12 12 12 12 12 13 13 14 15 15 16 16 16 17 18 19 19 20 21 22 22 22 22 21 21 20 20 20 21 22 23 24 26 27 27 28 29 30 30 31 31 31 31 32 32 32 32 33 34 35 36 37 36 35 35 36 37
14 14 14 14 14 14 15 14 13 13 13 13 13 13 12 11 12 12 11 11 11 12 12 12 12 12 12 11 11 11 12 12 12 13 13 14 15 15 15 16 16 16 18 18 18 19 19 19 18 18 18 18 18 19 20 21 22 23 24 25 26 27 28 28 29 29 30 30 30 30 30 30 30 30 30 31 32 34 35 34 33 31 30 30 31
14 14 13 13 14 14 14 13 12 12 13 12 12 12 11 11 11 11 10 10 11 11 9 9 10 11 10 10 11 11 11 12 12 12 12 13 14 14 14 15 15 16 17 17 16 17 16 16 15 16 17 18 19 19 20 21 22 24 25 26 27 27 27 28 28 29 28 27 27 27 27 27 27 28 29 31 33 34 32 28 25 23 21 21 21
12 12 10 11 12 12 12 12 11 12 12 13 12 12 12 11 10 9 8 9 10 11 8 7 9 9 8 9 11 11 10 11 11 11 11 12 13 13 13 13 14 15 15 15 14 15 15 14 15 16 17 17 18 19 20 21 22 24 25 25 25 25 26 26 26 25 24 24 24 24 24 25 26 27 28 30 31 32 28 22 18 16 15 15 15
10 9 8 9 10 10 10 11 11 11 12 13 12 11 11 10 10 10 10 9 9 10 9 9 9 8 8 9 11 11 10 9 9 9 10 10 11 11 11 12 12 13 13 13 13 13 14 14 14 16 16 17 18 19 20 21 22 22 23 23 23 23 23 23 22 22 23 23 24 24 24 24 24 24 25 26 27 27 24 20 18 15 14 15 15
7 7 6 8 8 8 9 9 10 10 11 12 11 11 11 11 10 11 11 10 8 9 10 10 9 9 9 10 10 10 9 9 8 8 9 9 9 9 10 10 11 12 12 12 12 13 13 14 14 15 16 16 17 18 18 19 20 20 21 21 20 21 21 21 22 23 23 24 25 24 23 23 23 22 21 22 23 23 21 19 16 13 12 12 12
5 5 6 7 7 8 9 9 10 10 10 10 11 11 10 9 9 10 10 9 8 9 10 9 9 9 10 10 10 9 9 8 7 7 8 7 7 8 9 10 11 11 11 12 12 12 13 14 14 15 15 16 16 16 16 17 18 19 19 19 19 19 20 21 22 23 23 24 24 23 22 22 21 20 19 19 21 21 19 17 15 11 10 10 11
5 6 7 7 7 8 9 10 11 10 10 10 11 10 8 7 8 10 10 9 8 9 9 9 9 10 10 9 9 9 8 7 7 7 7 7 7 8 9 10 11 11 12 12 13 13 14 14 14 14 14 14 14 14 15 16 16 17 18 18 18 18 18 19 20 21 22 22 23 22 21 20 20 19 17 16 18 20 19 17 15 12 10 10 10
6 7 9 10 10 9 9 9 10 10 10 9 10 9 8 8 8 8 9 9 9 8 9 8 9 9 9 8 8 7 7 7 7 7 7 7 8 9 10 11 12 13 13 14 14 14 14 13 13 12 12 12 13 14 14 15 15 16 17 17 17 17 18 18 19 20 21 22 23 23 21 20 18 18 16 15 15 16 17 16 14 12 11 10 11
8 9 10 11 12 11 10 9 10 9 9 8 8 8 8 9 8 8 9 9 9 9 9 8 7 8 8 7 7 7 7 6 7 7 7 8 9 10 11 12 13 13 13 13 13 13 12 11 10 10 11 11 13 13 14 14 15 15 16 16 17 17 18 19 20 20 20 21 21 21 20 19 17 17 16 15 14 13 13 12 11 10 9 8 8
10 10 10 12 12 11 10 10 10 9 7 8 8 7 7 8 8 8 8 9 9 9 8 8 7 7 7 6 6 6 6 6 7 8 8 9 9 10 11 12 12 13 13 12 11 11 9 9 8 9 10 12 13 13 13 14 15 16 16 17 17 18 18 19 19 20 20 20 20 20 19 18 16 14 14 14 12 11 9 8 7 6 6 6 5
9 10 10 12 12 10 9 10 11 9 7 7 8 7 6 8 8 8 8 8 8 7 7 6 6 6 5 5 5 6 6 7 7 8 8 9 10 10 11 11 12 12 11 11 10 9 9 8 9 10 11 12 12 12 13 14 15 16 17 17 17 17 18 18 18 19 19 18 18 18 18 17 14 12 11 11 11 9 9 8 7 6 6 5 5
8 9 9 11 11 9 8 11 13 10 6 6 7 7 6 7 8 7 7 7 7 6 6 6 5 5 5 4 5 6 6 7 7 8 8 9 9 10 10 11 11 11 11 10 10 9 9 10 10 11 12 12 12 13 13 14 15 16 16 17 17 17 17 17 17 17 16 16 16 16 15 15 14 12 11 11 11 11 10 9 8 7 7 6 6
9 9 10 11 11 10 9 10 12 11 8 6 6 7 7 7 7 7 6 6 6 6 6 5 5 5 5 5 5 6 6 7 7 8 8 8 9 9 9 10 10 10 10 10 10 10 10 11 11 12 12 13 13 14 14 15 15 15 16 16 16 16 16 16 15 14 13 13 13 13 13 13 13 12 11 11 11 11 11 10 9 8 7 6 6
9 9 10 11 11 10 9 8 9 11 10 7 5 6 8 8 8 7 6 6 6 6 6 6 5 5 5 5 5 6 6 7 7 8 8 8 9 9 9 9 10 10 10 11 11 11 12 12 12 13 13 13 14 14 14 14 15 15 15 14 14 14 14 13 13 12 11 10 10 11 11 11 12 12 11 10 10 10 10 9 9 8 7 6 6
9 9 10 11 11 11 10 7 8 11 10 7 5 6 8 8 8 7 6 6 7 6 6 6 6 5 5 5 5 6 6 7 7 7 7 7 7 8 8 9 9 10 10 11 12 12 13 13 14 14 14 14 14 14 14 14 14 13 13 12 11 11 11 11 11 10 10 9 10 10 11 11 11 11 10 10 9 9 8 8 8 7 7 6 6
9 10 12 13 14 13 10 6 7 10 10 7 5 7 8 8 7 7 6 6 7 6 6 6 6 6 5 5 5 6 6 6 6 6 5 5 5 6 6 7 8 8 9 10 11 12 13 13 13 14 13 13 13 12 12 12 11 10 9 9 9 9 9 10 10 10 10 10 10 10 11 11 10 10 10 9 9 9 8 8 7 7 6 6 5
9 10 11 13 14 13 9 5 6 10 11 8 6 6 7 7 7 7 7 7 7 6 6 7 6 6 5 5 5 5 5 4 4 4 4 4 4 5 6 6 7 7 8 8 9 9 10 11 11 11 11 10 10 10 9 8 8 7 7 7 7 8 8 9 9 10 10 10 10 10 10 10 10 10 10 10 9 9 9 8 7 7 6 5 4
Wind_Direction
224 232 232 221 215 215 214 212 209 204 203 203 203 205 206 209 216 223 229 236 256 260 237 228 224 218 219 219 219 223 221 220 222 219 215 216 217 213 208 203 195 191 183 165 169 180 185 192 191 186 186 191 194 196 197 195 196 205 193 167 180 198 202 218 239 260 236 222 231 225 209 213 213 204 213 222 223 227 234 248 260 271 278 284 290
225 231 231 223 216 214 214 214 211 208 206 206 207 208 209 214 219 224 229 231 251 271 239 224 218 213 212 213 217 221 221 217 216 217 215 216 224 220 207 203 189 173 174 174 174 176 186 201 194 180 180 185 191 195 195 194 196 203 200 191 199 204 205 216 233 278 271 261 264 245 218 217 221 214 220 231 235 239 246 258 268 275 280 286 290
224 231 234 230 222 217 216 215 210 209 210 211 212 211 212 218 222 225 230 233 250 265 236 226 220 212 208 209 213 215 218 215 210 211 215 215 219 217 201 191 186 181 181 180 178 182 196 205 194 184 182 185 193 194 192 194 192 193 208 224 217 193 189 212 232 264 292 293 287 262 235 226 232 227 223 236 248 252 254 262 270 274 277 281 285
220 230 235 232 226 222 225 220 212 212 215 215 215 213 215 223 225 227 231 233 246 262 246 227 220 214 210 206 208 211 211 211 208 207 212 216 216 213 203 191 188 193 196 194 195 198 202 198 189 191 189 186 194 196 190 186 181 187 215 246 203 168 170 201 226 245 270 277 277 265 245 222 238 252 236 226 240 257 264 265 266 272 273 272 273
213 224 230 231 228 234 246 236 218 215 217 217 216 215 218 226 228 228 231 232 241 252 257 244 219 216 216 207 205 208 210 212 212 207 207 212 215 214 206 195 194 200 207 217 214 206 207 202 184 186 194 193 193 191 181 180 184 190 218 252 201 169 170 192 217 231 250 262 281 276 255 221 228 274 273 247 231 238 254 262 263 265 266 265 267
213 220 228 233 231 239 252 240 221 215 216 217 217 217 220 226 228 229 231 232 236 244 256 264 234 219 223 220 212 209 210 212 211 209 210 209 212 216 209 200 205 205 209 227 223 207 209 210 192 183 189 193 195 190 178 181 189 190 221 260 245 191 182 188 202 215 227 243 274 282 270 249 234 259 273 268 259 253 254 256 259 266 273 274 274
226 223 229 233 231 237 242 230 217 215 216 217 218 217 220 224 226 231 234 234 237 244 256 269 258 233 229 232 228 220 221 219 212 213 216 212 211 214 207 204 210 203 201 225 231 226 219 210 201 197 193 192 198 197 185 181 183 181 205 242 247 214 202 203 210 220 222 223 235 243 254 256 253 250 257 266 272 277 279 277 279 286 290 288 286
230 228 228 226 228 236 234 219 214 216 215 216 216 217 221 225 227 232 235 235 240 243 252 268 273 255 242 245 248 239 237 235 226 224 225 220 215 210 197 199 207 206 211 227 231 232 225 209 202 204 200 198 202 202 196 190 189 193 203 214 210 211 225 221 218 225 225 220 227 228 224 238 248 249 251 257 264 272 279 284 290 295 293 291 292
232 231 230 224 225 233 229 215 212 215 214 214 217 218 222 226 229 233 234 237 243 246 253 266 272 267 261 261 260 242 238 239 234 232 230 223 218 213 199 195 199 202 213 225 223 217 219 213 210 209 203 203 206 206 205 202 206 215 219 216 211 216 227 225 217 222 225 225 230 232 232 241 246 243 244 248 250 251 253 261 272 278 278 276 279
233 234 234 229 221 221 224 218 211 211 212 214 217 218 221 225 229 231 234 239 243 246 252 262 272 280 282 272 258 238 231 233 231 231 228 221 218 220 215 204 198 199 206 213 213 213 215 213 214 216 212 211 213 213 214 213 217 225 229 227 226 228 234 240 237 230 228 232 239 240 242 251 256 254 253 252 249 245 242 245 252 259 265 268 271
235 234 236 233 218 213 226 228 217 209 208 210 215 217 220 226 230 231 235 240 242 246 252 263 277 287 284 266 254 242 234 233 232 230 226 220 218 220 222 220 214 212 212 214 216 217 219 220 219 221 222 223 221 220 222 224 225 230 233 233 234 236 242 248 253 253 247 246 251 255 257 261 262 262 263 262 259 254 250 248 249 254 263 269 273
236 232 233 233 222 219 231 230 217 209 207 209 214 219 221 226 229 230 235 241 246 252 258 269 280 282 272 257 250 243 236 233 233 231 226 221 221 223 227 227 223 223 224 227 231 229 229 234 234 230 230 232 230 228 229 231 233 236 238 239 239 242 245 249 253 257 258 257 258 262 268 270 269 269 268 269 271 272 272 272 270 271 273 274 276
239 233 230 229 226 224 226 220 210 209 212 214 216 220 223 225 228 232 237 244 250 257 267 278 281 274 261 248 245 242 234 228 230 230 224 220 220 223 227 224 221 224 226 229 239 243 242 245 244 238 234 235 235 236 235 235 236 238 241 243 245 247 249 251 253 255 257 259 261 263 266 268 270 272 273 275 277 279 281 283 284 285 285 284 284
238 233 229 227 223 218 213 208 208 213 216 218 220 222 224 226 230 235 241 245 251 259 271 279 278 268 252 239 239 241 233 225 227 227 223 220 217 220 226 224 223 228 231 232 241 250 252 252 251 245 238 237 239 240 239 239 239 240 242 245 249 252 253 254 255 257 260 262 262 262 263 266 269 270 271 274 277 278 279 280 281 282 283 284 284
237 234 232 229 224 219 213 208 210 214 216 218 221 223 225 229 232 236 241 246 252 262 268 271 272 262 242 229 234 242 236 228 225 223 221 220 218 219 223 226 227 230 233 235 237 241 244 246 247 245 241 241 245 246 245 244 242 242 243 246 249 253 256 257 259 261 262 264 264 264 264 265 266 268 270 272 274 276 277 278 278 279 279 280 280
234 236 235 232 228 224 219 214 211 212 214 217 221 224 227 230 233 238 244 249 255 261 262 260 261 250 232 224 233 243 241 234 227 223 221 220 219 219 221 224 227 228 230 233 233 233 237 241 243 243 243 244 248 251 250 249 247 246 245 246 249 253 256 258 260 261 262 263 265 265 265 265 266 268 270 271 272 274 275 276 276 277 278 278 278
227 235 237 236 232 224 219 217 214 214 214 215 219 224 226 229 233 239 245 249 254 259 256 252 248 235 224 224 230 237 242 239 232 229 226 224 223 221 221 223 224 226 230 234 236 235 236 241 243 244 246 249 252 255 255 254 253 252 251 252 253 255 257 258 260 263 266 267 268 269 269 269 269 270 270 271 272 273 273 274 275 277 277 277 277
228 237 231 227 226 222 217 212 210 212 213 213 216 221 224 229 234 238 242 246 249 252 251 247 240 227 220 223 227 234 241 239 234 233 231 230 230 228 229 228 226 227 232 238 241 241 242 246 249 249 251 255 258 260 262 262 261 259 259 259 259 260 262 263 265 268 270 271 272 273 273 273 273 273 272 273 273 274 274 275 276 276 275 275 276
234 232 216 207 205 209 210 203 201 206 209 209 211 213 217 225 230 234 239 243 245 247 246 239 232 223 219 221 225 235 242 241 237 235 234 235 237 239 241 242 240 239 243 247 250 250 250 251 254 256 257 260 261 263 264 265 265 265 265 265 266 267 268 269 270 271 271 272 273 273 273 274 275 275 275 275 276 276 277 278 278 277 276 276 278
204 187 188 190 186 186 189 187 187 194 199 202 204 204 209 218 226 233 239 240 236 234 231 225 223 221 219 219 226 234 240 244 246 243 240 239 240 242 246 248 247 246 247 251 254 255 255 256 259 261 263 264 264 265 265 266 267 268 269 269 269 270 270 271 272 272 273 274 274 274 275 275 276 276 277 277 276 275 275 275 275 277 278 279 279
188 177 185 199 196 188 187 189 191 197 201 205 209 212 214 219 225 231 234 229 220 215 214 217 221 221 216 218 227 234 239 245 249 251 250 247 244 245 246 248 249 249 250 254 258 261 262 262 263 265 266 266 265 265 266 267 268 269 270 270 271 271 272 272 273 274 275 276 277 278 278 278 278 278 277 277 277 275 274 272 271 272 275 278 279
180 182 189 200 202 198 197 199 203 206 210 216 221 222 220 217 216 216 215 213 210 207 209 215 219 218 216 220 228 234 238 243 247 250 253 253 253 253 251 249 250 251 252 254 258 263 267 267 267 267 266 266 265 265 266 266 267 268 269 271 272 273 275 276 277 277 278 279 279 279 280 279 279 279 278 278 278 277 276 275 274 273 273 274 276
124 138 146 155 173 182 182 185 190 193 200 206 208 207 206 203 203 203 202 203 205 205 208 215 218 220 223 227 232 236 239 242 245 249 252 254 255 255 252 250 250 250 252 254 256 260 266 270 272 271 269 268 268 268 269 269 269 269 269 270 272 273 275 276 278 278 279 280 281 281 281 281 281 281 280 280 278 278 277 277 277 277 276 276 276
106 111 117 125 135 145 151 160 176 185 189 191 190 190 190 189 190 192 192 194 199 204 209 213 216 219 222 226 231 236 239 241 243 245 248 251 253 253 250 250 251 252 255 257 259 261 264 268 270 272 272 272 272 271 272 272 272 272 273 273 274 275 277 278 279 281 282 282 282 282 281 281 281 281 280 279 279 279 278 278 278 278 278 278 277
101 100 103 111 118 126 131 137 149 162 168 169 170 173 175 174 175 179 182 186 192 198 201 204 208 212 214 219 225 231 236 239 242 246 251 254 256 257 256 256 256 258 259 262 264 265 266 268 271 273 275 276 276 276 276 276 276 278 278 278 278 279 281 282 283 283 283 283 282 282 281 281 281 280 280 281 281 282 281 280 280 279 279 278 278
83 79 78 81 90 102 113 122 131 141 146 148 153 159 163 164 164 170 177 185 194 202 205 208 213 218 221 224 231 236 239 240 243 251 257 259 261 262 263 263 263 263 264 265 266 268 270 271 273 275 277 278 279 280 280 281 281 282 282 282 282 282 282 282 282 282 282 282 282 282 282 282 282 282 283 284 284 285 285 284 284 283 281 279 277
44 39 30 22 18 21 25 29 34 54 100 129 148 157 171 183 185 190 201 207 214 221 224 226 230 235 238 241 243 247 251 252 251 252 256 260 264 266 267 268 268 269 269 270 270 271 272 273 273 274 276 277 278 278 279 280 280 281 281 281 281 281 282 282 283 284 284 284 284 284 285 285 285 286 286 287 287 288 289 289 288 287 283 278 275
13 11 8 2 352 346 345 343 342 340 336 327 315 297 272 258 247 244 244 242 241 242 243 245 245 246 251 256 258 260 266 268 263 258 259 262 265 267 268 269 270 270 271 272 273 273 273 274 274 275 275 276 276 277 278 279 281 282 283 284 285 287 288 289 289 290 290 290 290 290 290 290 290 291 291 291 291 291 291 290 288 286 282 277 273
356 356 356 358 352 343 335 331 332 330 326 323 316 305 292 281 272 267 264 262 262 262 261 262 263 264 267 269 270 272 273 272 270 268 267 267 267 268 269 270 270 271 272 273 274 275 275 276 277 277 279 280 281 283 285 287 289 291 292 293 294 295 295 295 295 295 294 295 295 295 295 295 295 294 294 293 292 292 291 290 287 284 282 278 273
328 334 336 334 331 326 318 308 304 301 301 303 301 297 289 280 275 274 272 269 269 269 269 269 270 271 270 269 271 272 272 271 271 272 271 271 272 273 274 274 275 276 277 277 279 280 282 284 286 287 288 289 290 292 293 294 295 296 296 297 297 297 297 297 297 296 297 298 299 298 298 297 295 294 293 292 291 290 289 288 286 285 283 279 273
306 313 318 318 313 307 301 293 288 283 276 270 270 270 269 267 266 264 262 262 260 259 260 262 263 264 264 265 267 268 270 271 272 272 273 274 275 276 277 279 280 281 283 285 286 287 289 292 293 293 293 293 294 294 295 294 294 294 294 295 295 296 297 297 297 298 299 299 298 297 296 295 294 294 293 291 291 289 288 287 285 284 283 281 275
295 300 302 303 298 293 290 290 288 286 282 277 270 263 261 264 267 265 262 261 263 263 262 263 265 265 265 266 266 268 271 273 274 276 277 278 279 281 282 283 285 288 290 291 291 292 293 294 294 293 293 294 294 294 294 293 293 293 293 294 294 295 295 296 297 298 298 297 296 295 295 295 294 294 293 292 291 289 288 287 285 282 280 279 277
290 289 286 284 281 279 280 282 281 280 279 278 275 273 272 271 269 268 266 264 264 265 264 262 263 264 264 265 267 269 272 276 279 283 286 287 288 288 289 290 291 293 292 292 293 294 295 295 293 293 293 293 293 293 293 294 294 295 296 297 299 299 300 300 301 301 300 299 299 299 299 298 298 297 296 296 294 292 290 287 284 281 277 275 274
283 281 278 275 273 272 272 271 271 271 271 271 272 277 281 279 274 271 271 268 266 265 264 262 263 264 266 268 271 274 277 280 283 285 285 286 286 287 289 291 292 293 291 292 293 294 294 293 293 294 294 295 297 298 299 300 302 303 305 306 307 308 308 308 307 306 305 305 305 305 305 305 305 305 304 303 302 299 295 289 283 280 276 273 272
273 269 266 266 265 265 267 269 271 272 271 269 270 273 275 275 273 271 269 268 266 266 268 270 269 267 268 269 271 273 275 276 277 278 280 281 283 286 289 291 292 292 292 293 294 294 293 295 297 298 300 302 304 306 307 309 310 311 311 312 313 313 313 312 311 309 309 309 309 310 310 311 311 311 310 309 310 309 303 291 281 276 274 274 273
264 261 259 261 262 263 266 268 268 267 266 265 266 266 264 263 265 266 268 269 268 266 267 267 264 263 266 269 268 268 270 271 273 275 278 281 284 287 291 294 294 294 294 295 296 297 299 302 303 304 304 305 306 308 309 310 312 313 315 316 317 317 317 316 315 313 313 313 314 314 315 315 315 314 314 315 320 322 316 299 282 276 276 278 278
264 264 260 257 258 260 262 258 252 251 254 255 255 256 256 255 259 262 261 261 266 267 263 255 252 253 255 258 260 261 261 263 267 271 275 280 285 289 292 294 294 294 297 299 301 302 303 303 302 300 301 302 304 306 309 312 315 317 319 320 322 322 322 321 320 319 319 319 320 320 320 319 317 317 320 325 331 334 328 311 295 289 283 276 274
274 276 269 260 258 259 258 254 248 244 244 246 245 247 249 248 248 249 246 244 255 262 259 253 253 249 241 243 249 253 255 258 264 271 275 280 286 290 292 295 296 298 301 303 303 302 300 298 295 295 297 301 305 309 314 318 320 322 323 325 326 327 326 325 325 325 324 325 324 323 322 319 315 317 325 333 339 342 338 321 306 297 287 274 269
272 273 271 267 265 261 257 256 253 246 243 243 241 240 243 244 242 243 241 236 238 248 250 251 254 253 247 249 254 259 262 264 267 272 276 282 288 295 299 302 304 305 305 303 300 297 296 296 296 298 302 306 311 315 318 322 324 325 325 326 327 327 327 327 327 327 327 325 323 322 322 320 316 317 327 337 342 346 344 334 319 304 294 287 282
265 271 276 277 274 268 262 259 257 252 250 251 248 243 246 252 254 254 253 250 250 255 257 257 258 258 257 260 264 266 268 271 274 280 286 291 296 302 307 310 310 310 308 306 304 302 302 303 305 307 309 311 313 316 321 324 326 326 325 325 326 327 328 329 330 330 329 326 323 323 325 326 323 323 331 341 344 343 342 340 336 329 317 306 294
279 283 286 290 290 280 268 261 258 255 254 258 259 257 258 263 265 266 268 268 265 263 263 261 261 261 260 260 261 264 268 275 282 290 297 301 304 309 314 316 318 319 319 318 316 315 314 312 311 311 310 310 312 317 321 325 326 326 326 326 327 329 331 332 333 334 334 332 331 332 333 332 328 326 331 341 344 343 341 337 333 329 322 309 296
271 275 283 294 302 298 285 273 265 259 255 258 265 271 274 274 271 272 276 276 273 270 267 263 261 262 263 263 263 267 274 282 289 298 304 307 311 316 320 322 324 325 325 323 321 319 316 313 311 308 308 310 314 318 322 325 326 327 328 328 328 329 330 332 333 336 337 337 337 339 340 337 331 326 329 336 342 345 346 341 333 324 313 300 290
264 268 278 288 297 305 305 294 281 273 270 270 271 274 277 278 277 277 279 281 281 279 275 268 260 258 260 262 265 270 278 286 297 307 313 314 316 319 322 324 325 325 323 321 318 315 312 309 308 307 309 314 318 321 324 326 326 326 327 327 327 327 329 330 331 333 335 337 338 339 342 342 337 332 332 337 341 344 348 350 346 341 332 318 303
266 270 277 283 291 306 313 301 286 277 275 274 272 272 275 279 280 282 283 283 281 276 272 266 258 253 253 257 264 272 283 296 306 313 316 317 318 320 320 321 321 320 318 315 313 310 308 306 306 308 313 318 322 324 326 325 324 324 325 326 326 327 328 329 330 331 332 334 336 339 343 345 344 340 340 343 344 346 351 357 2 4 1 357 353
266 271 278 284 294 310 316 300 289 281 267 262 266 270 275 279 282 286 287 283 277 270 263 257 253 251 254 262 273 284 295 304 310 314 316 316 316 316 314 314 313 313 311 309 306 305 305 304 305 309 313 316 319 321 321 322 322 323 324 326 327 328 329 329 330 331 331 332 336 340 345 350 352 351 353 358 1 2 6 11 16 20 24 28 31
268 276 281 285 294 304 303 293 293 293 276 255 259 265 271 281 291 295 291 281 272 264 258 254 254 257 261 269 281 291 299 304 308 311 311 310 309 309 307 307 307 307 307 307 306 306 305 304 305 306 308 310 312 314 316 319 322 323 325 326 328 331 334 335 335 335 334 335 338 343 350 357 4 9 11 13 15 18 20 21 23 25 30 37 44
271 279 283 287 295 302 301 296 296 293 277 255 259 275 285 294 301 300 291 278 267 260 256 254 253 257 264 271 278 286 293 297 299 299 298 296 296 298 299 300 302 302 303 303 301 299 297 297 297 298 301 304 306 309 313 317 320 323 325 327 330 335 340 342 341 341 341 343 346 351 358 7 15 20 19 17 14 15 17 20 21 24 28 33 39
267 276 283 287 293 298 300 302 302 295 286 272 270 288 298 302 303 297 284 269 259 251 251 253 253 254 262 270 276 281 287 289 288 288 288 288 288 291 293 294 294 293 292 292 291 289 289 290 292 295 298 301 304 307 310 314 318 321 324 328 335 343 346 348 350 353 355 358 1 4 8 14 17 16 15 14 10 8 8 11 15 21 28 32 36
260 267 274 277 280 286 293 298 296 290 285 275 270 286 297 300 298 289 273 256 250 246 245 248 249 249 254 264 273 280 283 284 283 283 284 286 289 293 297 298 298 297 297 296 295 294 294 295 297 299 301 302 303 305 308 312 316 321 326 334 345 354 356 359 5 9 10 12 14 10 9 11 13 11 9 9 8 7 7 10 13 19 24 29 36
269 268 271 272 274 279 287 288 278 277 277 270 265 283 296 298 290 280 264 247 242 241 241 240 239 240 246 256 266 271 271 271 272 276 281 290 300 308 313 315 315 315 314 312 309 306 304 305 305 305 305 306 305 305 308 313 319 325 334 347 1 7 7 10 15 16 14 15 16 12 6 5 7 7 8 9 10 9 10 12 17 22 24 26 34
276 271 273 277 281 284 283 266 257 273 282 277 261 265 281 288 282 272 259 246 237 234 233 233 231 231 237 246 250 254 256 258 265 276 290 304 316 324 329 331 334 336 336 333 329 324 321 320 319 317 315 313 311 311 315 321 329 338 350 3 11 16 16 15 16 15 12 11 12 11 6 3 3 5 8 10 12 13 12 11 15 23 24 23 30
Height
3100 3103 3105 3108 3111 3113 3115 3118 3122 3125 3126 3127 3128 3129 3131 3132 3133 3134 3135 3135 3135 3135 3134 3134 3134 3135 3135 3136 3136 3137 3138 3139 3140 3141 3142 3143 3143 3144 3144 3145 3146 3146 3146 3148 3150 3150 3151 3152 3153 3154 3156 3157 3158 3159 3161 3162 3163 3163 3163 3164 3166 3167 3168 3167 3167 3168 3168 3168 3168 3168 3169 3170 3170 3171 3172 3172 3173 3173 3174 3174 3174 3174 3174 3174 3174
3097 3100 3102 3105 3108 3111 3114 3116 3120 3123 3125 3126 3127 3129 3130 3131 3132 3133 3134 3134 3134 3134 3133 3133 3133 3133 3134 3134 3135 3136 3137 3138 3139 3140 3141 3142 3142 3143 3144 3145 3146 3146 3147 3148 3148 3149 3150 3151 3152 3154 3155 3156 3157 3159 3161 3161 3162 3162 3163 3164 3165 3167 3167 3167 3167 3168 3169 3169 3168 3168 3169 3169 3169 3170 3171 3171 3172 3172 3173 3173 3173 3173 3173 3173 3173
3094 3097 3099 3102 3104 3107 3110 3114 3118 3122 3124 3125 3126 3128 3129 3130 3131 3132 3133 3133 3133 3133 3132 3132 3132 3133 3133 3134 3134 3135 3136 3137 3138 3138 3139 3140 3141 3142 3143 3144 3145 3146 3147 3148 3148 3148 3149 3150 3151 3153 3154 3155 3156 3158 3160 3161 3161 3162 3163 3164 3165 3166 3167 3166 3166 3167 3169 3169 3168 3168 3168 3169 3169 3170 3171 3171 3171 3171 3171 3172 3172 3172 3172 3172 3172
3091 3095 3098 3099 3101 3104 3107 3111 3116 3119 3122 3124 3125 3126 3128 3129 3130 3131 3131 3132 3132 3132 3132 3131 3132 3132 3132 3133 3133 3134 3135 3135 3136 3137 3138 3138 3139 3140 3142 3143 3144 3145 3146 3147 3147 3148 3148 3150 3151 3152 3153 3154 3155 3157 3159 3160 3161 3162 3162 3164 3165 3165 3165 3165 3165 3166 3168 3168 3168 3167 3168 3169 3168 3168 3169 3170 3170 3170 3170 3170 3170 3170 3171 3171 3170
3088 3094 3097 3099 3101 3103 3105 3109 3113 3116 3119 3122 3123 3125 3126 3127 3128 3129 3130 3131 3131 3131 3131 3131 3131 3131 3131 3132 3132 3133 3134 3134 3135 3136 3137 3137 3138 3139 3140 3142 3143 3144 3145 3145 3146 3147 3148 3149 3150 3151 3152 3153 3154 3157 3159 3160 3161 3162 3162 3163 3164 3164 3164 3165 3165 3165 3167 3167 3168 3167 3167 3168 3168 3168 3168 3168 3169 3169 3169 3169 3169 3169 3169 3169 3169
3088 3093 3097 3099 3101 3103 3104 3106 3110 3114 3117 3119 3121 3123 3124 3125 3126 3127 3128 3129 3129 3129 3129 3129 3129 3130 3130 3131 3131 3131 3132 3133 3133 3134 3135 3136 3137 3138 3139 3140 3141 3143 3144 3144 3144 3146 3147 3148 3149 3150 3151 3152 3154 3156 3158 3159 3160 3161 3162 3163 3164 3164 3164 3164 3164 3165 3166 3166 3167 3167 3167 3167 3168 3168 3168 3167 3167 3168 3168 3168 3168 3167 3167 3166 3166
3091 3093 3095 3098 3101 3102 3103 3104 3107 3110 3113 3117 3119 3121 3122 3123 3124 3125 3126 3127 3128 3128 3128 3128 3128 3129 3129 3129 3130 3130 3131 3132 3132 3133 3134 3135 3136 3136 3138 3139 3140 3142 3143 3143 3144 3145 3146 3147 3148 3149 3150 3152 3153 3155 3157 3158 3158 3159 3161 3162 3163 3163 3164 3165 3164 3165 3165 3165 3166 3167 3167 3167 3167 3168 3168 3168 3166 3166 3166 3166 3166 3166 3165 3164 3163
3089 3090 3093 3096 3098 3100 3101 3103 3105 3107 3110 3114 3117 3118 3120 3121 3122 3123 3124 3125 3126 3126 3127 3127 3127 3127 3127 3128 3129 3130 3131 3131 3132 3133 3133 3134 3135 3136 3137 3138 3139 3141 3141 3141 3143 3144 3144 3145 3147 3148 3150 3151 3152 3154 3156 3157 3157 3157 3159 3160 3161 3161 3163 3164 3164 3165 3166 3165 3165 3166 3166 3166 3166 3167 3167 3167 3167 3166 3166 3165 3165 3164 3164 3163 3161
3087 3088 3090 3092 3094 3096 3098 3100 3102 3105 3108 3111 3113 3115 3118 3119 3120 3121 3123 3123 3124 3124 3125 3125 3125 3126 3127 3128 3128 3129 3129 3130 3131 3132 3133 3134 3135 3135 3136 3137 3138 3139 3140 3141 3142 3143 3143 3145 3146 3147 3149 3150 3151 3153 3155 3156 3156 3156 3157 3159 3159 3159 3160 3161 3162 3163 3164 3165 3165 3165 3165 3165 3166 3166 3166 3166 3166 3166 3166 3165 3164 3164 3163 3162 3161
3086 3087 3089 3089 3089 3090 3094 3096 3098 3101 3105 3108 3110 3113 3115 3116 3117 3119 3121 3122 3122 3122 3123 3123 3124 3125 3126 3127 3127 3127 3128 3129 3130 3130 3131 3132 3134 3135 3135 3136 3137 3138 3139 3140 3141 3142 3142 3143 3145 3146 3147 3149 3150 3152 3153 3154 3155 3155 3156 3158 3158 3158 3159 3160 3160 3161 3162 3162 3163 3163 3164 3164 3164 3164 3164 3164 3164 3165 3165 3164 3163 3162 3161 3161 3160
3084 3085 3087 3088 3087 3088 3091 3094 3096 3097 3100 3104 3107 3110 3112 3114 3116 3118 3119 3120 3120 3120 3121 3122 3122 3124 3125 3125 3125 3125 3126 3127 3128 3129 3130 3131 3132 3133 3134 3135 3136 3137 3138 3139 3140 3141 3142 3142 3143 3145 3146 3147 3148 3149 3151 3152 3153 3154 3155 3156 3157 3158 3158 3159 3159 3160 3160 3161 3161 3161 3162 3162 3162 3162 3162 3162 3162 3162 3162 3162 3161 3160 3159 3159 3159
3080 3081 3082 3084 3087 3088 3089 3091 3094 3096 3097 3101 3104 3107 3110 3112 3114 3116 3116 3117 3118 3118 3119 3120 3121 3122 3122 3123 3124 3124 3124 3125 3126 3127 3128 3130 3131 3132 3133 3134 3135 3136 3137 3138 3138 3140 3140 3141 3142 3143 3144 3145 3147 3148 3148 3149 3151 3152 3153 3154 3155 3156 3157 3157 3158 3158 3158 3159 3159 3160 3160 3160 3160 3160 3160 3159 3159 3159 3159 3159 3158 3158 3157 3156 3156
3076 3077 3078 3080 3083 3085 3087 3090 3093 3095 3096 3099 3103 3106 3108 3110 3112 3113 3114 3115 3115 3116 3117 3119 3119 3119 3120 3121 3122 3122 3123 3123 3124 3125 3127 3128 3129 3130 3131 3132 3133 3134 3135 3136 3137 3138 3139 3139 3139 3141 3142 3144 3145 3146 3147 3148 3149 3150 3151 3152 3153 3154 3155 3155 3156 3156 3156 3156 3157 3157 3158 3157 3157 3158 3157 3156 3156 3156 3156 3155 3155 3154 3153 3153 3152
3073 3074 3076 3077 3079 3082 3084 3087 3090 3093 3095 3098 3102 3104 3106 3108 3109 3110 3111 3112 3113 3114 3116 3116 3116 3116 3117 3119 3120 3120 3121 3122 3122 3124 3125 3126 3127 3128 3129 3131 3132 3132 3134 3135 3136 3137 3137 3137 3137 3139 3140 3142 3143 3143 3144 3146 3147 3148 3149 3150 3151 3152 3152 3153 3153 3153 3153 3154 3154 3155 3155 3155 3155 3155 3154 3154 3154 3153 3153 3152 3151 3150 3149 3148 3148
3071 3072 3073 3075 3078 3080 3082 3084 3087 3091 3094 3097 3099 3102 3104 3105 3106 3107 3108 3109 3111 3113 3114 3114 3114 3114 3115 3116 3118 3119 3119 3120 3121 3122 3123 3125 3126 3127 3128 3129 3130 3131 3132 3134 3135 3135 3135 3135 3136 3138 3139 3140 3141 3141 3142 3143 3144 3145 3147 3147 3148 3149 3149 3150 3150 3150 3150 3151 3151 3151 3152 3151 3151 3151 3151 3151 3150 3150 3149 3148 3147 3146 3145 3144 3143
3068 3070 3071 3073 3075 3078 3080 3082 3085 3089 3092 3094 3097 3099 3101 3102 3103 3104 3105 3107 3109 3110 3112 3112 3112 3112 3113 3115 3116 3117 3118 3119 3120 3121 3122 3123 3124 3125 3127 3127 3128 3130 3131 3132 3132 3133 3133 3133 3135 3136 3138 3138 3139 3140 3140 3141 3142 3143 3143 3144 3145 3146 3146 3146 3146 3146 3146 3147 3147 3147 3147 3147 3147 3147 3146 3146 3146 3145 3144 3143 3142 3142 3141 3139 3138
3066 3068 3069 3070 3072 3075 3077 3080 3083 3086 3088 3091 3094 3095 3097 3099 3100 3101 3103 3105 3106 3108 3109 3110 3111 3111 3112 3113 3114 3115 3116 3117 3118 3119 3121 3122 3123 3124 3124 3125 3126 3128 3129 3129 3129 3131 3132 3132 3133 3135 3136 3136 3137 3138 3139 3139 3139 3140 3141 3141 3142 3142 3142 3142 3141 3142 3142 3142 3143 3143 3143 3143 3143 3142 3142 3141 3141 3140 3139 3137 3137 3137 3135 3133 3132
3067 3068 3068 3067 3069 3072 3075 3077 3080 3082 3085 3088 3090 3092 3093 3095 3096 3097 3099 3102 3103 3105 3106 3108 3108 3109 3110 3111 3112 3113 3114 3116 3117 3118 3119 3120 3121 3121 3122 3123 3124 3126 3126 3126 3127 3129 3130 3130 3131 3133 3134 3135 3135 3136 3136 3137 3137 3138 3138 3139 3139 3139 3138 3138 3138 3138 3138 3138 3139 3138 3138 3138 3138 3137 3137 3136 3136 3135 3134 3132 3133 3132 3129 3127 3126
3067 3069 3069 3069 3069 3072 3074 3076 3078 3080 3082 3084 3086 3088 3090 3091 3092 3094 3096 3098 3100 3102 3104 3105 3106 3107 3108 3109 3110 3111 3112 3114 3115 3116 3117 3117 3118 3120 3121 3122 3124 3125 3125 3125 3125 3126 3127 3128 3129 3130 3132 3133 3133 3133 3134 3134 3134 3135 3135 3135 3135 3135 3135 3135 3134 3134 3134 3134 3134 3133 3133 3133 3132 3132 3131 3131 3131 3130 3128 3127 3127 3126 3124 3122 3121
3066 3068 3069 3070 3070 3070 3072 3074 3076 3077 3079 3081 3083 3084 3085 3087 3089 3091 3093 3095 3097 3099 3100 3102 3103 3105 3106 3107 3108 3109 3111 3112 3113 3114 3115 3116 3117 3118 3119 3120 3122 3123 3123 3122 3122 3122 3124 3125 3127 3128 3129 3130 3130 3130 3130 3130 3130 3130 3131 3131 3131 3130 3130 3130 3129 3129 3128 3128 3128 3127 3127 3127 3127 3126 3125 3125 3124 3124 3123 3122 3122 3120 3118 3117 3116
3066 3067 3068 3069 3070 3070 3070 3072 3073 3075 3076 3078 3080 3081 3082 3084 3086 3088 3090 3092 3093 3095 3097 3099 3100 3102 3103 3105 3106 3107 3109 3110 3111 3112 3113 3114 3115 3116 3117 3118 3119 3120 3121 3121 3120 3119 3120 3123 3125 3126 3126 3126 3126 3126 3125 3125 3125 3126 3125 3125 3125 3125 3124 3124 3124 3123 3122 3122 3121 3121 3120 3120 3120 3119 3119 3118 3117 3117 3117 3116 3115 3114 3113 3111 3110
3067 3067 3067 3068 3068 3069 3069 3071 3072 3073 3075 3076 3078 3079 3081 3082 3083 3085 3087 3089 3091 3092 3094 3096 3098 3099 3101 3102 3104 3105 3106 3107 3108 3109 3110 3112 3113 3114 3115 3115 3116 3117 3118 3119 3118 3117 3116 3118 3121 3123 3122 3122 3121 3121 3121 3121 3121 3121 3121 3120 3119 3119 3118 3118 3118 3117 3117 3116 3115 3114 3114 3113 3112 3112 3111 3111 3110 3109 3108 3107 3107 3107 3106 3105 3103
3068 3068 3068 3068 3068 3068 3069 3070 3071 3072 3073 3074 3076 3077 3079 3080 3081 3083 3085 3087 3088 3090 3092 3093 3095 3097 3099 3100 3102 3103 3103 3104 3106 3107 3108 3109 3110 3111 3112 3112 3113 3114 3115 3115 3115 3115 3114 3114 3116 3117 3117 3117 3117 3117 3117 3116 3116 3116 3115 3115 3114 3114 3113 3112 3111 3111 3110 3110 3109 3108 3107 3106 3105 3104 3103 3102 3102 3101 3100 3099 3098 3097 3097 3096 3096
3069 3069 3069 3069 3069 3069 3070 3070 3071 3073 3074 3074 3075 3076 3077 3078 3079 3081 3083 3084 3086 3088 3089 3091 3093 3094 3096 3098 3099 3100 3100 3102 3103 3104 3105 3107 3108 3108 3109 3110 3110 3111 3111 3112 3112 3113 3113 3112 3111 3111 3112 3112 3113 3113 3112 3112 3111 3110 3110 3109 3108 3108 3107 3106 3105 3104 3104 3103 3102 3101 3100 3098 3097 3096 3094 3093 3093 3093 3092 3091 3090 3089 3088 3087 3086
3070 3070 3070 3070 3070 3070 3071 3072 3073 3074 3075 3075 3076 3077 3078 3078 3079 3080 3081 3083 3084 3086 3087 3089 3091 3092 3094 3095 3097 3097 3097 3099 3101 3102 3103 3104 3105 3105 3106 3107 3107 3107 3108 3109 3109 3109 3109 3109 3108 3108 3108 3108 3108 3107 3107 3107 3106 3105 3104 3103 3102 3102 3101 3100 3099 3098 3097 3096 3095 3093 3092 3090 3089 3087 3086 3086 3085 3085 3084 3083 3082 3081 3080 3079 3078
3071 3071 3071 3071 3072 3072 3072 3073 3074 3074 3075 3076 3077 3077 3078 3078 3079 3080 3081 3083 3084 3085 3086 3088 3089 3090 3091 3093 3094 3094 3095 3098 3100 3101 3101 3101 3102 3102 3103 3103 3104 3104 3104 3105 3105 3105 3105 3105 3105 3104 3104 3103 3103 3102 3101 3101 3100 3100 3099 3098 3097 3096 3095 3094 3093 3092 3091 3089 3088 3086 3085 3083 3082 3080 3080 3079 3079 3078 3076 3075 3074 3073 3072 3071 3071
3071 3071 3072 3072 3072 3072 3073 3073 3074 3075 3075 3076 3076 3077 3078 3078 3079 3080 3081 3082 3084 3085 3086 3087 3088 3088 3089 3090 3091 3092 3094 3097 3099 3099 3098 3098 3099 3099 3100 3100 3100 3100 3101 3101 3101 3101 3101 3101 3101 3100 3100 3099 3098 3097 3096 3096 3095 3095 3094 3093 3092 3091 3090 3089 3087 3086 3084 3083 3081 3080 3079 3077 3075 3074 3074 3073 3073 3072 3070 3068 3067 3066 3066 3065 3065
3072 3072 3072 3072 3073 3073 3073 3073 3074 3075 3075 3076 3076 3077 3078 3078 3079 3080 3081 3082 3083 3084 3085 3086 3086 3087 3088 3088 3089 3090 3092 3094 3095 3096 3096 3096 3096 3096 3097 3097 3097 3097 3097 3097 3097 3097 3097 3097 3096 3096 3095 3094 3093 3093 3092 3091 3090 3090 3088 3087 3086 3085 3084 3082 3081 3079 3078 3076 3075 3074 3073 3071 3069 3068 3067 3066 3066 3065 3064 3062 3061 3060 3059 3059 3059
3072 3072 3072 3072 3073 3073 3073 3074 3074 3075 3075 3076 3076 3077 3078 3078 3079 3080 3080 3081 3082 3083 3084 3084 3085 3086 3087 3087 3087 3088 3089 3090 3091 3092 3093 3093 3093 3093 3094 3094 3094 3094 3093 3093 3093 3093 3093 3092 3092 3091 3091 3090 3089 3088 3087 3086 3085 3084 3082 3081 3080 3079 3078 3076 3075 3073 3072 3070 3069 3068 3067 3066 3064 3063 3061 3060 3059 3059 3058 3057 3056 3054 3053 3053 3052
3072 3072 3072 3072 3073 3073 3074 3074 3075 3075 3075 3076 3076 3076 3077 3078 3078 3079 3079 3080 3081 3082 3082 3083 3083 3084 3084 3085 3085 3086 3086 3087 3088 3088 3089 3089 3089 3090 3090 3090 3090 3090 3089 3089 3089 3089 3088 3088 3087 3087 3086 3085 3084 3083 3082 3081 3080 3079 3078 3077 3075 3074 3073 3072 3070 3069 3067 3066 3065 3064 3062 3061 3060 3058 3057 3056 3054 3054 3053 3052 3050 3049 3047 3047 3046
3071 3072 3072 3072 3072 3073 3073 3073 3074 3074 3075 3075 3076 3076 3076 3077 3078 3078 3079 3079 3079 3080 3080 3081 3081 3082 3082 3083 3083 3083 3083 3084 3084 3085 3085 3086 3086 3086 3086 3086 3086 3086 3086 3085 3085 3085 3084 3084 3083 3082 3081 3081 3080 3079 3079 3078 3077 3076 3074 3073 3072 3071 3070 3068 3067 3066 3064 3063 3062 3060 3058 3057 3055 3053 3052 3050 3049 3048 3047 3046 3045 3044 3042 3041 3040
3071 3072 3072 3072 3071 3071 3071 3072 3072 3073 3073 3074 3074 3074 3075 3076 3076 3076 3077 3077 3077 3078 3078 3078 3078 3079 3079 3080 3080 3080 3080 3081 3081 3081 3082 3082 3082 3082 3082 3082 3082 3082 3082 3082 3081 3081 3081 3081 3080 3079 3078 3077 3076 3075 3075 3074 3073 3072 3071 3070 3069 3068 3067 3065 3064 3062 3061 3059 3057 3056 3054 3052 3050 3049 3047 3045 3043 3042 3041 3040 3039 3038 3037 3035 3034
3070 3070 3071 3071 3071 3070 3070 3071 3071 3071 3071 3072 3072 3072 3073 3074 3074 3074 3074 3075 3075 3075 3075 3075 3075 3076 3076 3077 3077 3077 3078 3078 3078 3078 3078 3078 3078 3079 3079 3079 3079 3079 3079 3078 3078 3078 3077 3077 3076 3075 3074 3074 3073 3072 3071 3070 3069 3068 3067 3066 3065 3064 3063 3061 3060 3058 3056 3054 3053 3051 3049 3047 3045 3043 3041 3040 3038 3036 3035 3034 3032 3031 3030 3029 3029
3068 3069 3069 3069 3070 3069 3069 3070 3070 3070 3071 3071 3071 3071 3071 3072 3072 3072 3072 3072 3072 3072 3072 3073 3073 3073 3074 3074 3074 3075 3075 3075 3076 3076 3076 3076 3076 3076 3076 3076 3077 3076 3076 3076 3075 3075 3074 3073 3072 3072 3071 3070 3069 3068 3067 3066 3065 3064 3063 3062 3061 3060 3058 3057 3055 3053 3051 3049 3047 3045 3043 3041 3040 3038 3036 3034 3032 3030 3028 3027 3025 3024 3024 3023 3022
3066 3067 3067 3067 3068 3067 3067 3068 3069 3069 3069 3069 3070 3070 3070 3070 3070 3070 3070 3070 3070 3070 3070 3071 3071 3071 3072 3072 3073 3073 3073 3074 3074 3074 3074 3074 3074 3074 3074 3074 3074 3074 3073 3073 3072 3072 3071 3070 3069 3068 3068 3067 3066 3065 3064 3063 3062 3061 3060 3059 3058 3056 3054 3053 3051 3049 3046 3045 3043 3041 3039 3037 3035 3033 3031 3029 3027 3024 3021 3019 3018 3018 3017 3016 3017
3064 3065 3065 3066 3066 3066 3066 3067 3067 3067 3067 3067 3068 3068 3068 3068 3068 3068 3069 3068 3068 3068 3069 3069 3069 3070 3070 3071 3071 3071 3072 3072 3072 3072 3072 3072 3072 3072 3072 3072 3071 3071 3070 3070 3069 3069 3068 3067 3066 3066 3065 3064 3063 3063 3062 3061 3060 3059 3057 3056 3054 3052 3050 3048 3046 3044 3042 3041 3039 3037 3035 3033 3032 3029 3027 3024 3021 3018 3015 3013 3012 3012 3012 3012 3012
3062 3063 3064 3064 3064 3064 3064 3065 3065 3065 3065 3066 3066 3066 3066 3067 3067 3067 3067 3067 3066 3067 3068 3068 3068 3069 3070 3070 3070 3070 3070 3070 3070 3071 3070 3070 3070 3070 3070 3069 3069 3068 3067 3067 3067 3066 3065 3065 3064 3063 3063 3062 3061 3061 3060 3059 3057 3056 3054 3052 3050 3048 3047 3045 3043 3042 3040 3038 3037 3035 3033 3031 3029 3026 3024 3021 3018 3015 3012 3010 3009 3009 3009 3010 3010
3061 3061 3062 3062 3062 3062 3063 3063 3063 3064 3064 3064 3065 3065 3065 3066 3066 3066 3066 3066 3066 3066 3066 3067 3067 3068 3068 3068 3068 3069 3069 3069 3069 3069 3069 3068 3068 3068 3068 3067 3066 3066 3065 3065 3064 3064 3063 3063 3062 3062 3061 3060 3059 3058 3057 3055 3054 3052 3051 3049 3048 3046 3045 3043 3042 3040 3038 3037 3035 3033 3031 3029 3027 3024 3022 3019 3016 3013 3011 3009 3008 3008 3008 3008 3008
3060 3060 3060 3060 3060 3061 3061 3061 3061 3062 3062 3062 3063 3063 3064 3064 3065 3064 3065 3066 3066 3066 3065 3066 3066 3066 3066 3066 3066 3066 3067 3067 3067 3067 3067 3067 3066 3066 3065 3065 3064 3064 3063 3063 3063 3062 3061 3061 3060 3059 3058 3057 3056 3055 3054 3053 3052 3050 3049 3048 3046 3045 3043 3042 3040 3039 3037 3035 3033 3031 3029 3026 3024 3022 3019 3017 3015 3013 3011 3009 3008 3007 3007 3007 3007
3058 3059 3059 3059 3060 3060 3060 3060 3060 3060 3060 3060 3060 3061 3062 3062 3062 3062 3063 3063 3064 3064 3063 3064 3064 3064 3064 3064 3064 3064 3064 3065 3065 3065 3065 3065 3064 3064 3063 3063 3063 3062 3062 3061 3060 3060 3059 3058 3057 3056 3056 3055 3054 3053 3053 3052 3050 3049 3048 3046 3045 3044 3042 3041 3039 3037 3035 3033 3031 3029 3027 3024 3022 3020 3017 3015 3014 3012 3011 3009 3008 3007 3006 3006 3007
3057 3057 3058 3058 3059 3059 3058 3058 3058 3058 3058 3058 3058 3059 3060 3060 3060 3060 3060 3061 3061 3061 3061 3061 3062 3062 3062 3062 3062 3062 3062 3062 3063 3063 3063 3062 3062 3062 3062 3061 3061 3060 3059 3058 3058 3057 3056 3055 3055 3054 3054 3053 3053 3052 3051 3050 3049 3048 3047 3045 3044 3042 3041 3040 3038 3036 3034 3032 3030 3027 3025 3023 3021 3019 3016 3015 3013 3012 3010 3009 3008 3007 3007 3007 3007
3056 3056 3056 3057 3057 3057 3056 3056 3056 3056 3056 3056 3056 3057 3057 3058 3058 3058 3058 3058 3059 3059 3059 3059 3060 3060 3060 3060 3060 3060 3060 3060 3061 3061 3061 3060 3060 3060 3059 3059 3058 3058 3057 3056 3055 3055 3054 3054 3054 3053 3053 3052 3052 3051 3050 3049 3048 3047 3046 3044 3043 3041 3040 3038 3037 3035 3033 3030 3028 3026 3024 3022 3020 3018 3016 3014 3013 3011 3010 3009 3008 3007 3007 3007 3006
3055 3056 3056 3056 3056 3055 3055 3055 3055 3055 3055 3055 3055 3055 3055 3056 3056 3056 3056 3056 3056 3056 3057 3057 3057 3058 3058 3058 3058 3058 3058 3059 3059 3059 3059 3058 3058 3058 3057 3057 3056 3056 3055 3055 3055 3054 3054 3053 3053 3053 3052 3052 3051 3050 3049 3048 3047 3046 3045 3043 3042 3040 3038 3037 3035 3033 3031 3029 3027 3025 3023 3021 3019 3018 3016 3014 3013 3011 3010 3009 3008 3007 3007 3006 3006
3055 3055 3055 3055 3055 3055 3054 3054 3053 3053 3054 3054 3054 3054 3054 3054 3054 3055 3055 3055 3055 3055 3055 3055 3056 3056 3056 3056 3056 3056 3057 3057 3057 3057 3057 3057 3056 3056 3056 3055 3055 3055 3055 3054 3054 3054 3053 3053 3053 3052 3052 3051 3050 3049 3048 3047 3046 3045 3044 3042 3041 3039 3037 3035 3033 3031 3030 3028 3026 3024 3022 3021 3019 3017 3016 3014 3013 3012 3011 3009 3009 3008 3007 3007 3006
3055 3055 3055 3055 3055 3055 3054 3053 3052 3052 3053 3053 3053 3053 3053 3053 3053 3053 3053 3053 3053 3053 3053 3054 3054 3054 3054 3054 3054 3055 3055 3055 3055 3055 3055 3055 3055 3055 3055 3055 3055 3054 3054 3054 3054 3053 3053 3052 3052 3051 3051 3050 3049 3048 3047 3046 3045 3044 3042 3041 3039 3037 3036 3034 3032 3030 3028 3026 3025 3023 3021 3020 3019 3018 3016 3014 3013 3012 3011 3010 3009 3008 3008 3007 3007
3054 3054 3055 3054 3054 3054 3054 3052 3051 3052 3052 3052 3052 3052 3052 3052 3052 3052 3052 3052 3052 3052 3052 3052 3052 3052 3053 3053 3053 3053 3053 3054 3054 3054 3054 3054 3054 3054 3054 3054 3054 3054 3054 3053 3053 3052 3052 3051 3051 3050 3050 3049 3048 3047 3046 3045 3044 3043 3041 3039 3038 3036 3034 3033 3031 3029 3027 3026 3024 3023 3021 3020 3019 3017 3016 3014 3013 3013 3012 3011 3010 3009 3009 3008 3007
3053 3053 3053 3053 3053 3053 3053 3052 3051 3051 3050 3051 3051 3051 3051 3051 3050 3050 3050 3050 3050 3050 3050 3051 3051 3051 3051 3052 3052 3052 3052 3053 3053 3053 3053 3054 3054 3054 3054 3054 3054 3053 3053 3053 3052 3052 3051 3051 3050 3049 3048 3048 3047 3046 3045 3043 3042 3041 3040 3038 3036 3035 3033 3032 3030 3029 3027 3025 3024 3023 3022 3020 3019 3018 3017 3015 3014 3013 3012 3012 3011 3010 3009 3009 3008
3053 3053 3052 3052 3052 3052 3052 3051 3051 3050 3049 3050 3050 3050 3050 3049 3049 3049 3049 3049 3049 3050 3050 3050 3050 3050 3050 3051 3051 3051 3052 3052 3052 3053 3053 3053 3053 3053 3053 3053 3053 3052 3052 3052 3051 3051 3050 3049 3049 3048 3047 3046 3045 3044 3043 3042 3041 3040 3038 3037 3035 3034 3032 3031 3030 3028 3027 3025 3024 3023 3022 3021 3020 3019 3018 3017 3016 3015 3014 3013 3012 3011 3010 3010 3009
3052 3052 3051 3051 3051 3051 3051 3051 3050 3049 3048 3049 3049 3049 3049 3048 3048 3048 3048 3048 3048 3049 3049 3049 3049 3050 3050 3050 3051 3051 3051 3052 3052 3052 3052 3053 3052 3052 3052 3052 3052 3051 3051 3050 3049 3049 3048 3047 3047 3046 3045 3044 3043 3042 3041 3040 3039 3038 3037 3036 3034 3033 3032 3031 3029 3028 3027 3026 3025 3024 3022 3021 3020 3019 3018 3017 3016 3015 3015 3014 3013 3012 3011 3011 3011
3051 3050 3050 3050 3050 3050 3050 3050 3049 3048 3047 3048 3048 3048 3048 3048 3047 3047 3047 3048 3048 3048 3048 3049 3049 3049 3050 3050 3050 3051 3051 3051 3052 3052 3052 3052 3051 3051 3051 3051 3050 3049 3049 3048 3048 3047 3046 3045 3045 3044 3043 3042 3042 3041 3040 3039 3038 3037 3036 3035 3034 3033 3032 3030 3029 3028 3027 3026 3025 3024 3023 3022 3021 3020 3019 3018 3017 3016 3015 3014 3014 3013 3013 3012 3012
3049 3049 3049 3048 3048 3048 3049 3049 3048 3048 3047 3047 3047 3047 3047 3047 3047 3046 3046 3047 3047 3047 3048 3048 3048 3049 3049 3050 3050 3051 3051 3051 3051 3051 3051 3051 3051 3050 3050 3049 3049 3048 3048 3047 3046 3046 3045 3044 3043 3042 3041 3041 3040 3039 3039 3038 3037 3037 3036 3035 3034 3033 3032 3031 3030 3029 3028 3027 3026 3025 3024 3023 3022 3020 3019 3018 3018 3017 3016 3015 3014 3014 3013 3013 3013